User: anonymous   Login
Location: Lima
(44.6384°N, 112.5920°W)
Time: 05:55:13
(UTC+00:00)
Language:

CAS-4A - Orbit

View from above orbital plane
View from above orbital plane
View from above satellite
View from above satellite

Ground track
Ground track

The orbit data is extracted from the following two-line orbital elements,

1 42761U 17034D   25191.74084341  .00052655  00000-0  44483-3 0  9993
2 42761  43.0090 132.4109 0020903 157.8067 202.3709 15.68662234447513
Epoch (UTC): 10 July 2025 17:46:48
Eccentricity: 0.0020903
inclination: 43.0090°
perigee height: 348 km
apogee height: 377 km
right ascension of ascending node: 132.4109°
argument of perigee: 157.8067°
revolutions per day: 15.68662234
mean anomaly at epoch: 202.3709°
orbit number at epoch: 44751

The dashed part of the orbit path shows where the satellite is in the earth's shadow,  

DLR